{"data":{"norad_id":65221,"intl_designator":"2025-176Z","name":"STARLINK-34974","alt_names":[],"object_type":"PAYLOAD","status":"ACTIVE","operator":null,"country":"US","launch_date":"2025-08-14","launch_site_code":"AFETR","launch_vehicle":null,"mission":null,"orbit_class":"UNKNOWN","rcs_meters":null,"size_class":null,"mass_kg":null,"dimensions":null,"purposes":["comms"],"wikipedia_slug":null,"has_3d_model":false,"image_url":null,"decayed_at":null,"tle_current":{"epoch":"2026-05-24T23:58:58.287072Z","epoch_age_seconds":75066,"freshness":"FRESH","line1":"1 65221U 25176Z   26144.99928573  .00018321  00000+0  55199-3 0  9992","line2":"2 65221  53.1584 157.5759 0001300 124.5764 235.5361 15.34403605 44819","mean_motion":15.34403605,"eccentricity":0.00013,"inclination_deg":53.1584,"raan_deg":157.5759,"arg_perigee_deg":124.5764,"mean_anomaly_deg":235.5361,"bstar":0.00055199,"rev_number":4481,"period_min":93.847537590998,"perigee_km":461.80321757006,"apogee_km":463.58183324667,"semimajor_km":6840.8295254084,"source":"CELESTRAK","updated_at":"2026-05-25T13:38:20.722558Z"}}}